Location: Unspecified
(0.0000°N, 0.0000°E)
Time: 00:06:05
(UTC+02:00)

H-2A R/B - Visible Passes

Search period start: 20 April 2014 00:00
Search period end: 30 April 2014 00:00
Orbit: 293 x 33610 km, 27.9° (Epoch: 18 April)

Date Brightness Start Highest point End Pass type
(mag) Time Alt. Az. Time Alt. Az. Time Alt. Az.
20 Apr 6.7 00:00:00 69° WSW 23:59:45 69° WSW 02:33:05 10° NE visible
20 Apr 4.4 12:48:53 10° W 12:53:35 44° S 13:23:55 10° SE visible
21 Apr 6.3 18:46:30 10° SW 21:42:02 62° SW 03:51:51 10° NNE visible
22 Apr 5.5 14:08:00 10° WSW 21:40:46 60° E 23:16:06 10° ENE visible
23 Apr 5.9 20:14:30 10° SW 22:21:31 45° SW 05:09:34 10° NNE visible
24 Apr 6.5 15:27:51 10° WSW 22:52:38 85° ENE 00:38:59 10° NE visible
25 Apr 9.4 21:53:38 10° WSW 23:26:47 26° WSW 02:30:26 10° W visible
26 Apr 6.7 16:48:46 10° SW 21:59:08 78° SSW 01:59:05 10° NE visible
27 Apr 7.9 16:03:28 10° ESE 19:45:16 33° E 21:09:38 10° ENE visible
28 Apr 6.4 18:11:28 10° SW 21:15:11 66° SW 03:17:41 10° NE visible
29 Apr 5.3 13:33:57 10° WSW 21:02:57 56° E 22:40:20 10° ENE visible
